| time (UTC) | temp C | wind direction | speed KPH | gust KPH | rain 1hr cm | rain 24hr cm | rain mn cm | humidity % | barometer mb |
| 20260504130318 | 15 | 40 | 6.4 | 11.3 | 0.00 | 0.00 | 0.00 | 62 | 1016.2 |
| 20260504110322 | 5 | 213 | 3.2 | 8.0 | 0.00 | 0.00 | 0.00 | 94 | 1015.9 |
| 20260504100350 | 5 | 229 | 1.6 | 3.2 | 0.00 | 0.00 | 0.00 | 93 | 1016.2 |
| 20260504081552 | 6 | 236 | 1.6 | 3.2 | 0.00 | 0.00 | 0.00 | 92 | 1016.5 |
| 20260504080329 | 6 | 206 | 0.0 | 0.0 | 0.00 | 0.00 | 0.00 | 91 | 1016.5 |
| 20260504070351 | 8 | 201 | 0.0 | 0.0 | 0.00 | 0.00 | 0.00 | 89 | 1016.9 |
| 20260504045731 | 8 | 220 | 0.0 | 0.0 | 0.00 | 0.00 | 0.00 | 85 | 1017.9 |
| 20260504045152 | 8 | 225 | 0.0 | 0.0 | 0.00 | 0.00 | 0.00 | 89 | 1017.9 |
| 20260504044536 | 8 | 227 | 0.0 | 0.0 | 0.00 | 0.00 | 0.00 | 89 | 1017.9 |
| 20260504043915 | 8 | 221 | 0.0 | 0.0 | 0.00 | 0.00 | 0.00 | 90 | 1017.9 |
| 20260504042719 | 8 | 216 | 0.0 | 0.0 | 0.00 | 0.00 | 0.00 | 90 | 1018.2 |
| 20260504042142 | 8 | 240 | 0.0 | 0.0 | 0.00 | 0.00 | 0.00 | 90 | 1018.2 |
| 20260504041542 | 8 | 225 | 0.0 | 0.0 | 0.00 | 0.00 | 0.00 | 91 | 1018.2 |
| 20260504040949 | 8 | 223 | 0.0 | 0.0 | 0.00 | 0.00 | 0.00 | 90 | 1017.9 |
| 20260504035738 | 8 | 220 | 0.0 | 0.0 | 0.00 | 0.00 | 0.00 | 87 | 1017.9 |
| 20260504035142 | 8 | 236 | 0.0 | 0.0 | 0.00 | 0.00 | 0.00 | 87 | 1017.9 |
| 20260504033953 | 8 | 154 | 0.0 | 0.0 | 0.00 | 0.00 | 0.00 | 86 | 1018.2 |
| 20260504033342 | 8 | 209 | 0.0 | 0.0 | 0.00 | 0.00 | 0.00 | 86 | 1018.2 |
| 20260504032713 | 8 | 165 | 0.0 | 0.0 | 0.00 | 0.00 | 0.00 | 85 | 1017.9 |
| 20260504032125 | 8 | 228 | 0.0 | 0.0 | 0.00 | 0.00 | 0.00 | 84 | 1018.2 |
| 20260504031536 | 8 | 48 | 0.0 | 0.0 | 0.00 | 0.00 | 0.00 | 84 | 1017.9 |
| 20260504030952 | 8 | 224 | 0.0 | 0.0 | 0.00 | 0.00 | 0.00 | 85 | 1017.9 |
| 20260504030354 | 8 | 233 | 0.0 | 0.0 | 0.00 | 0.00 | 0.00 | 83 | 1017.9 |
| 20260504025115 | 8 | 224 | 0.0 | 0.0 | 0.00 | 0.00 | 0.00 | 82 | 1017.9 |
| 20260504024555 | 8 | 224 | 0.0 | 0.0 | 0.00 | 0.00 | 0.00 | 83 | 1017.9 |
| 20260504023317 | 8 | 224 | 0.0 | 0.0 | 0.00 | 0.00 | 0.00 | 82 | 1017.9 |
| 20260504022747 | 8 | 234 | 0.0 | 0.0 | 0.00 | 0.00 | 0.00 | 81 | 1017.6 |
| 20260504021538 | 8 | 220 | 0.0 | 0.0 | 0.00 | 0.00 | 0.00 | 80 | 1017.6 |
| 20260504020353 | 8 | 213 | 0.0 | 0.0 | 0.00 | 0.00 | 0.00 | 77 | 1017.6 |
| 20260504015734 | 7 | 216 | 0.0 | 0.0 | 0.00 | 0.00 | 0.00 | 78 | 1017.6 |
| 20260504015121 | 7 | 214 | 0.0 | 0.0 | 0.00 | 0.00 | 0.00 | 78 | 1017.6 |
| 20260504014530 | 7 | 216 | 0.0 | 0.0 | 0.00 | 0.00 | 0.00 | 81 | 1017.6 |
| 20260504013925 | 7 | 217 | 0.0 | 0.0 | 0.00 | 0.00 | 0.00 | 79 | 1017.6 |
| 20260504013334 | 7 | 214 | 0.0 | 0.0 | 0.00 | 0.00 | 0.00 | 81 | 1017.6 |
| 20260504012735 | 7 | 216 | 0.0 | 0.0 | 0.00 | 0.00 | 0.00 | 81 | 1017.6 |
| 20260504011522 | 8 | 225 | 0.0 | 0.0 | 0.00 | 0.00 | 0.00 | 81 | 1017.9 |
| 20260504010939 | 8 | 219 | 0.0 | 0.0 | 0.00 | 0.00 | 0.00 | 80 | 1017.9 |
| 20260504010354 | 9 | 217 | 0.0 | 0.0 | 0.00 | 0.00 | 0.00 | 78 | 1017.9 |
| 20260504005728 | 9 | 221 | 0.0 | 0.0 | 0.00 | 0.00 | 0.00 | 78 | 1017.6 |
| 20260504004531 | 10 | 223 | 0.0 | 0.0 | 0.00 | 0.00 | 0.00 | 75 | 1017.6 |
| 20260504003953 | 10 | 228 | 0.0 | 0.0 | 0.00 | 0.00 | 0.00 | 74 | 1017.6 |
| 20260504003337 | 10 | 224 | 0.0 | 0.0 | 0.00 | 0.00 | 0.00 | 74 | 1017.6 |
| 20260504002742 | 11 | 225 | 0.0 | 0.0 | 0.00 | 0.00 | 0.00 | 74 | 1017.2 |
| 20260504002127 | 11 | 226 | 0.0 | 0.0 | 0.00 | 0.00 | 0.00 | 71 | 1017.6 |
| 20260504001533 | 12 | 229 | 0.0 | 0.0 | 0.00 | 0.00 | 0.00 | 66 | 1017.9 |
| 20260504000928 | 12 | 229 | 0.0 | 0.0 | 0.00 | 0.00 | 0.00 | 66 | 1017.6 |
| 20260504000328 | 12 | 232 | 0.0 | 0.0 | 0.00 | 0.00 | 0.00 | 63 | 1017.6 |
| 20260503234521 | 14 | 228 | 0.0 | 0.0 | 0.00 | 0.00 | 0.00 | 63 | 1017.6 |
| 20260503231524 | 17 | 316 | 0.0 | 0.0 | 0.00 | 0.00 | 0.00 | 45 | 1017.9 |
| 20260503230953 | 17 | 265 | 0.0 | 0.0 | 0.00 | 0.00 | 0.00 | 45 | 1017.9 |
| 20260503230351 | 17 | 239 | 0.0 | 0.0 | 0.00 | 0.00 | 0.00 | 39 | 1017.6 |
| 20260503225724 | 18 | 258 | 0.0 | 0.0 | 0.00 | 0.00 | 0.00 | 39 | 1017.9 |
| 20260503225148 | 18 | 232 | 0.0 | 0.0 | 0.00 | 0.00 | 0.00 | 36 | 1017.9 |
| 20260503224527 | 18 | 219 | 0.0 | 0.0 | 0.00 | 0.00 | 0.00 | 34 | 1017.9 |
| 20260503223912 | 18 | 252 | 6.4 | 8.0 | 0.00 | 0.00 | 0.00 | 36 | 1017.9 |
| 20260503223351 | 18 | 110 | 9.7 | 11.3 | 0.00 | 0.00 | 0.00 | 33 | 1017.9 |
| 20260503222727 | 18 | 285 | 0.0 | 0.0 | 0.00 | 0.00 | 0.00 | 32 | 1017.9 |
| 20260503222144 | 18 | 186 | 0.0 | 0.0 | 0.00 | 0.00 | 0.00 | 33 | 1017.9 |
| 20260503221527 | 18 | 277 | 0.0 | 0.0 | 0.00 | 0.00 | 0.00 | 35 | 1017.9 |
| 20260503220909 | 18 | 338 | 8.0 | 11.3 | 0.00 | 0.00 | 0.00 | 33 | 1017.9 |
| 20260503220333 | 18 | 185 | 6.4 | 11.3 | 0.00 | 0.00 | 0.00 | 32 | 1017.9 |
| 20260503215723 | 18 | 257 | 3.2 | 8.0 | 0.00 | 0.00 | 0.00 | 35 | 1017.9 |
| 20260503215141 | 18 | 312 | 6.4 | 11.3 | 0.00 | 0.00 | 0.00 | 34 | 1018.2 |
| 20260503214519 | 18 | 78 | 9.7 | 27.4 | 0.00 | 0.00 | 0.00 | 35 | 1017.9 |
| 20260503213944 | 18 | 341 | 4.8 | 8.0 | 0.00 | 0.00 | 0.00 | 33 | 1018.2 |
| 20260503213328 | 18 | 276 | 3.2 | 8.0 | 0.00 | 0.00 | 0.00 | 34 | 1018.2 |
| 20260503212750 | 18 | 256 | 0.0 | 3.2 | 0.00 | 0.00 | 0.00 | 35 | 1017.9 |
| 20260503212128 | 18 | 303 | 6.4 | 11.3 | 0.00 | 0.00 | 0.00 | 35 | 1018.2 |
| 20260503211543 | 18 | 183 | 3.2 | 3.2 | 0.00 | 0.00 | 0.00 | 32 | 1017.9 |
| 20260503210933 | 18 | 299 | 3.2 | 8.0 | 0.00 | 0.00 | 0.00 | 32 | 1018.2 |
| 20260503210349 | 18 | 1 | 11.3 | 16.1 | 0.00 | 0.00 | 0.00 | 32 | 1018.2 |
| 20260503205719 | 18 | 327 | 9.7 | 11.3 | 0.00 | 0.00 | 0.00 | 31 | 1018.2 |
| 20260503203914 | 17 | 147 | 6.4 | 8.0 | 0.00 | 0.00 | 0.00 | 33 | 1018.6 |
| 20260503203343 | 17 | 225 | 0.0 | 0.0 | 0.00 | 0.00 | 0.00 | 32 | 1018.6 |
| 20260503202733 | 18 | 304 | 1.6 | 3.2 | 0.00 | 0.00 | 0.00 | 35 | 1018.9 |
| 20260503202127 | 18 | 46 | 11.3 | 16.1 | 0.00 | 0.00 | 0.00 | 33 | 1018.9 |
| 20260503201509 | 17 | 225 | 0.0 | 3.2 | 0.00 | 0.00 | 0.00 | 31 | 1019.3 |
| 20260503200953 | 17 | 308 | 6.4 | 11.3 | 0.00 | 0.00 | 0.00 | 35 | 1018.9 |
| 20260503200321 | 17 | 216 | 0.0 | 3.2 | 0.00 | 0.00 | 0.00 | 33 | 1019.3 |
| 20260503195119 | 17 | 310 | 6.4 | 11.3 | 0.00 | 0.00 | 0.00 | 37 | 1019.6 |
| 20260503194527 | 17 | 8 | 0.0 | 3.2 | 0.00 | 0.00 | 0.00 | 31 | 1019.6 |
| 20260503193935 | 17 | 185 | 0.0 | 3.2 | 0.00 | 0.00 | 0.00 | 35 | 1019.9 |
| 20260503193341 | 17 | 291 | 0.0 | 0.0 | 0.00 | 0.00 | 0.00 | 42 | 1019.6 |
| 20260503192753 | 17 | 306 | 4.8 | 11.3 | 0.00 | 0.00 | 0.00 | 36 | 1019.9 |
| 20260503192120 | 17 | 256 | 6.4 | 8.0 | 0.00 | 0.00 | 0.00 | 36 | 1019.9 |
| 20260503190909 | 16 | 149 | 0.0 | 0.0 | 0.00 | 0.00 | 0.00 | 35 | 1019.9 |
| 20260503185750 | 16 | 216 | 0.0 | 0.0 | 0.00 | 0.00 | 0.00 | 36 | 1020.6 |
| 20260503185141 | 16 | 358 | 6.4 | 11.3 | 0.00 | 0.00 | 0.00 | 35 | 1020.6 |
| 20260503184540 | 16 | 335 | 4.8 | 8.0 | 0.00 | 0.00 | 0.00 | 37 | 1020.9 |
| 20260503183353 | 16 | 352 | 16.1 | 19.3 | 0.00 | 0.00 | 0.00 | 37 | 1020.9 |
| 20260503182749 | 16 | 197 | 0.0 | 3.2 | 0.00 | 0.00 | 0.00 | 36 | 1020.9 |
| 20260503182146 | 16 | 259 | 4.8 | 8.0 | 0.00 | 0.00 | 0.00 | 40 | 1020.9 |
| 20260503181545 | 16 | 266 | 0.0 | 0.0 | 0.00 | 0.00 | 0.00 | 44 | 1021.3 |
| 20260503180335 | 15 | 207 | 3.2 | 8.0 | 0.00 | 0.00 | 0.00 | 35 | 1021.3 |
| 20260503175731 | 15 | 175 | 0.0 | 0.0 | 0.00 | 0.00 | 0.00 | 43 | 1021.3 |
| 20260503175123 | 15 | 291 | 0.0 | 0.0 | 0.00 | 0.00 | 0.00 | 40 | 1021.3 |
| 20260503174550 | 15 | 337 | 8.0 | 11.3 | 0.00 | 0.00 | 0.00 | 38 | 1021.6 |
| 20260503173918 | 15 | 190 | 0.0 | 0.0 | 0.00 | 0.00 | 0.00 | 40 | 1021.6 |
| 20260503173309 | 15 | 228 | 8.0 | 11.3 | 0.00 | 0.00 | 0.00 | 43 | 1021.6 |
| 20260503172730 | 15 | 186 | 3.2 | 8.0 | 0.00 | 0.00 | 0.00 | 47 | 1021.6 |
| 20260503172124 | 14 | 231 | 0.0 | 0.0 | 0.00 | 0.00 | 0.00 | 38 | 1021.6 |
| 20260503171538 | 15 | 270 | 3.2 | 8.0 | 0.00 | 0.00 | 0.00 | 38 | 1022.0 |
| 20260503170935 | 14 | 225 | 8.0 | 11.3 | 0.00 | 0.00 | 0.00 | 41 | 1022.0 |
| 20260503170347 | 14 | 259 | 4.8 | 8.0 | 0.00 | 0.00 | 0.00 | 46 | 1022.0 |
| 20260503150929 | 12 | 124 | 0.0 | 0.0 | 0.00 | 0.00 | 0.00 | 47 | 1023.3 |
| 20260503150317 | 12 | 264 | 8.0 | 11.3 | 0.00 | 0.00 | 0.00 | 48 | 1023.3 |